OPS 4682 DEB, 19185

Orbit data source: Space-Track

OPS 4682 DEB, 19185 is space debris in LEO originally from a launch on Sat, 03 Apr 1965 UTC launched from the Air Force Western Test Range (AFWTR). Debris objects in space refer to the collection of defunct objects orbiting the Earth. Examples of debris include non-operational satellites, rocket bodies, and fragments generated from explosions, collisions, or faulty payload assembly.

Loading next visibility...
Identifier
19185, 1965-027AR
Orbit
LEO
Country
Flag of USUS
Related business
Manufacturer
Unknown
Mission
Spacecraft
Bus & Motor
Unknown
Mass
Unknown
Launch date (UTC)
1965-04-03 (61 years ago)
Launch vehicle
Unknown
Launch site
Air Force Western Test Range (AFWTR)
Object type
Payload
Rocket body
Debris
Shape & HBR
Unknown shape, 0.1 m
Radar Cross Section
Small (<0.1 m²)

Expand to show TLE details & history
Last TLE update: 7 hours ago

TLE from 7 hours ago
0 OPS 4682 DEB
1 19185U 65027AR  26119.45564178  .00000044  00000-0  12383-3 0  9991
2 19185  90.2497   3.3034 0034589 200.8376 338.0767 12.97746181943786
Epoch: 2026-04-29T10:56Z
TLE epoch observation values (Epoch: 2026-04-29T10:56:07.449Z)
Latitude
1.12861°
Longitude
161.86091°
Altitude
1,249.135 km
Speed
7.242 km/s
True Right ascension
12h 13m 13s
True Declination
1° 07' 20"
Sunlit
Object was in full shadow at epoch
Visualization orbit readout
Latitude
Unknown
Longitude
Unknown
Altitude
Unknown
Speed
Unknown
Apparent Right ascension
Unknown
Apparent Declination
Unknown
Sunlit
N/A
Visualization observer readout
Local Sidereal Time
01:45:05
Azimuth
Unknown
Elevation
Unknown
Doppler factor
Unknown
Orbital elements
Apogee altitude
1,294.508 km
Perigee altitude
1,241.613 km
Semi-major axis
7,646.197 km
Eccentricity
0.00346
Inclination
90.2497°
RAAN
3.3034°
Arg. of periapsis
200.8376°
True anomaly
337.92812°
Mean anomaly
338.0767°
Eccentric anomaly
338.00247°
Mean motion
3.2462 °/min
Orbital period
110.9 mins
BSTAR
0.00012383
Loading maneuver chart data...
Computing Atmospheric mass density...
Loading historical data...
Loading historical data...
Loading historical data...
Loading historical data...
Loading historical data...
Loading historical data...
Loading historical data...

Documentation

Showing up to 5 results
|